Orbital Elements at Epoch 2459200.5 (2020-Dec-17.0) TDB
Reference: JPL 14 (heliocentric ecliptic J2000)
Element | Value | Uncertainty (1-sigma) | Units |
e | .04088824521975997 | 7.129e-08 | |
a | 2.806511960431622 | 2.2295e-08 | au |
q | 2.691758611181305 | 2.0593e-07 | au |
i | 4.722937528156759 | 5.6278e-06 | deg |
node | 119.2552329065768 | 0.00010047 | deg |
peri | 24.37858983112366 | 0.00013543 | deg |
M | 253.388663642052 | 9.135e-05 | deg |
tp | 2459709.068736872390 (2022-May-09.56873687) | 0.0004373 | TDB |
period | 1717.310292963147 4.70 | 2.0463e-05 5.602e-08 | d yr |
n | .209630141666964 | 2.4979e-09 | deg/d |
Q | 2.921265309681939 | 2.3206e-08 | au |
|
| | Orbit Determination Parameters
Additional Information
|